De Sui — BSFU — position and weather

sailwx.info

Track history (hours):
 
Tides and Currents Weather Stations Pressure Air Temp Water Temp Dewpoint Dewpoint Depression Visibility Wind Speed Wind Dir Waves Ship Positions

De Sui

Last reported at 2014-Nov-23 20:05 UTC. Time now 2014-Nov-24 06:51 UTC.
Position N 22°12' E 113°05'.

Length 65 m; draft 5 m.

Type: Tug. MMSI: 413070000.

Date/timePositionNaut miles runAvg speedWind from/ knotsBaromVisibWave heightAir tempDewpointWater temp
2014-Nov-23 20:05N 22°12' E 113°05'0 0.0
2014-Nov-23 19:21N 22°12' E 113°05'0 0.0
2014-Nov-23 18:26N 22°12' E 113°05'0 0.1
2014-Nov-23 17:28N 22°12' E 113°05'0 0.0
2014-Nov-23 16:28N 22°12' E 113°05'0 0.1
2014-Nov-23 15:27N 22°12' E 113°05'0 0.0
2014-Nov-23 14:32N 22°12' E 113°05'0 0.0
2014-Nov-23 10:09N 22°12' E 113°05'0 0.0
2014-Nov-22 00:15N 22°12' E 113°05'0 0.1
2014-Nov-21 23:29N 22°12' E 113°05'0 0.0
2014-Nov-21 20:25N 22°12' E 113°05'0 0.0
2014-Nov-21 19:33N 22°12' E 113°05'0 0.1
2014-Nov-21 18:31N 22°12' E 113°05'0 0.1
2014-Nov-21 17:29N 22°12' E 113°05'0 0.0
2014-Nov-21 16:16N 22°12' E 113°05'0 0.1
2014-Nov-21 15:31N 22°12' E 113°05'0 0.0
2014-Nov-21 14:13N 22°12' E 113°05'0 0.0
2014-Nov-21 13:20N 22°12' E 113°05'0 0.0
2014-Nov-21 09:31N 22°12' E 113°05'  
2014-Nov-14 06:32N 22°06' E 113°06'5 5.6
2014-Nov-14 05:33N 22°01' E 113°06'6 6.3
2014-Nov-14 04:33N 21°56' E 113°10'6 6.4
2014-Nov-14 03:33N 21°51' E 113°15'3 2.7
2014-Nov-14 02:31N 21°50' E 113°18'0 0.2
2014-Nov-14 01:28N 21°50' E 113°18'0 0.1
2014-Nov-14 00:30N 21°50' E 113°18'0 0.1
2014-Nov-13 23:30N 21°50' E 113°18'0 0.0
2014-Nov-13 22:06N 21°50' E 113°18'0 0.0
2014-Nov-13 21:18N 21°50' E 113°18'0 0.0
2014-Nov-13 20:24N 21°50' E 113°18'  
Track history (hours):
 
Tides and Currents Weather Stations Pressure Air Temp Water Temp Dewpoint Dewpoint Depression Visibility Wind Speed Wind Dir Waves Ship Positions

De Sui

Last reported at 2014-Nov-23 20:05 UTC. Time now 2014-Nov-24 06:51 UTC.
Position N 22°12' E 113°05'.

Length 65 m; draft 5 m.

Type: Tug. MMSI: 413070000.

Date/timePositionNaut miles runAvg speedWind from/ knotsBaromVisibWave heightAir tempDewpointWater temp
2014-Nov-23 20:05N 22°12' E 113°05'0 0.0
2014-Nov-23 19:21N 22°12' E 113°05'0 0.0
2014-Nov-23 18:26N 22°12' E 113°05'0 0.1
2014-Nov-23 17:28N 22°12' E 113°05'0 0.0
2014-Nov-23 16:28N 22°12' E 113°05'0 0.1
2014-Nov-23 15:27N 22°12' E 113°05'0 0.0
2014-Nov-23 14:32N 22°12' E 113°05'0 0.0
2014-Nov-23 10:09N 22°12' E 113°05'0 0.0
2014-Nov-22 00:15N 22°12' E 113°05'0 0.1
2014-Nov-21 23:29N 22°12' E 113°05'0 0.0
2014-Nov-21 20:25N 22°12' E 113°05'0 0.0
2014-Nov-21 19:33N 22°12' E 113°05'0 0.1
2014-Nov-21 18:31N 22°12' E 113°05'0 0.1
2014-Nov-21 17:29N 22°12' E 113°05'0 0.0
2014-Nov-21 16:16N 22°12' E 113°05'0 0.1
2014-Nov-21 15:31N 22°12' E 113°05'0 0.0
2014-Nov-21 14:13N 22°12' E 113°05'0 0.0
2014-Nov-21 13:20N 22°12' E 113°05'0 0.0
2014-Nov-21 09:31N 22°12' E 113°05'  
2014-Nov-14 06:32N 22°06' E 113°06'5 5.6
2014-Nov-14 05:33N 22°01' E 113°06'6 6.3
2014-Nov-14 04:33N 21°56' E 113°10'6 6.4
2014-Nov-14 03:33N 21°51' E 113°15'3 2.7
2014-Nov-14 02:31N 21°50' E 113°18'0 0.2
2014-Nov-14 01:28N 21°50' E 113°18'0 0.1
2014-Nov-14 00:30N 21°50' E 113°18'0 0.1
2014-Nov-13 23:30N 21°50' E 113°18'0 0.0
2014-Nov-13 22:06N 21°50' E 113°18'0 0.0
2014-Nov-13 21:18N 21°50' E 113°18'0 0.0
2014-Nov-13 20:24N 21°50' E 113°18'  

Dump ship's entire track history